Happy Valentine's Day! 

Flight Track Log - Related Links

Times and Time Zones

All times are in EDT time to prevent confusion due to time zone crossing. See the SWA1259 flight status page for this flight to view local times or setup timezone preferences in your user account.


Time Position Orientation Groundspeed Altitude Reporting Facility
EDT Latitude Longitude Course Direction KTS MPH feet Rate Location/Type
Mon 12:22:51 AM 33.6392 -117.8894 337° Northwest 140 161 2,100  Level Los Angeles Center
Mon 12:23:52 AM 33.5953 -117.8969 188° South 152 175 3,600 2,195 Climbing Los Angeles Center
Mon 12:24:54 AM 33.5325 -117.9225 199° South 231 266 6,600 3,339 Climbing Los Angeles Center
Mon 12:25:56 AM 33.4753 -117.9775 219° Southwest 268 308 10,500 3,317 Climbing Los Angeles Center
Mon 12:26:57 AM 33.4539 -118.0728 255° West 286 329 13,400 2,829 Climbing Los Angeles Center
Mon 12:27:59 AM 33.4294 -118.1794 255° West 318 366 16,300 2,976 Climbing Los Angeles Center
Mon 12:28:00 AM 33.3923 -118.4295 337° Northwest  Level FlightAware Approximate
Mon 12:29:00 AM 33.4025 -118.2931 254° West 337 388 19,500  Level Los Angeles Center
Mon 12:30:02 AM 33.3994 -118.4125 268° West 363 418 22,200 2,585 Climbing Los Angeles Center
Mon 12:31:03 AM 33.4744 -118.5075 313° West 385 443 24,800 2,341 Climbing Los Angeles Center
Mon 12:32:05 AM 33.5544 -118.6036 315° West 398 458 27,000 2,049 Climbing Los Angeles Center
Mon 12:33:06 AM 33.6372 -118.7044 315° West 414 476 29,000 2,146 Climbing Los Angeles Center
Mon 12:34:08 AM 33.7389 -118.8261 315° West 424 488 31,400 2,195 Climbing Los Angeles Center
Mon 12:35:09 AM 33.8214 -118.9267 315° West 423 487 33,500 1,902 Climbing Los Angeles Center
Mon 12:36:11 AM 33.9039 -119.0286 314° West 424 488 35,300 1,902 Climbing Los Angeles Center
Mon 12:37:12 AM 33.9850 -119.1264 315° West 417 480 37,400 1,854 Climbing Los Angeles Center
Mon 12:38:14 AM 34.0625 -119.2217 314° West 404 465 39,100 1,268 Climbing Los Angeles Center
Mon 12:39:15 AM 34.1386 -119.3164 314° West 397 457 40,000 439 Climbing Los Angeles Center
Mon 12:40:17 AM 34.2158 -119.4097 315° West 395 455 40,000  Level Los Angeles Center
Mon 12:41:18 AM 34.2931 -119.5064 314° West 397 457 40,000  Level Los Angeles Center
Mon 12:42:20 AM 34.3706 -119.6014 315° West 397 457 40,000  Level Los Angeles Center
Mon 12:43:21 AM 34.4611 -119.7144 314° West 395 455 40,000  Level Los Angeles Center
Mon 12:44:23 AM 34.5436 -119.8033 318° Northwest 397 457 40,000  Level Los Angeles Center
Mon 12:45:24 AM 34.6253 -119.8667 327° Northwest 401 461 40,000  Level Los Angeles Center
Mon 12:46:26 AM 34.7350 -119.9583 326° Northwest 401 461 40,000  Level Los Angeles Center
Mon 12:47:27 AM 34.8256 -120.0342 326° Northwest 400 460 40,000  Level Los Angeles Center
Mon 12:48:29 AM 34.9147 -120.1058 327° Northwest 395 455 40,000  Level Los Angeles Center
Mon 12:49:30 AM 35.0061 -120.1822 326° Northwest 399 459 40,000  Level Los Angeles Center
Mon 12:50:31 AM 35.0956 -120.2569 326° Northwest 396 456 40,000  Level Los Angeles Center
Mon 12:51:33 AM 35.1842 -120.3308 326° Northwest 394 453 40,000  Level Los Angeles Center
Mon 12:52:34 AM 35.2744 -120.4053 326° Northwest 393 452 40,000  Level Los Angeles Center
Mon 12:53:36 AM 35.3806 -120.4986 324° Northwest 397 457 40,000  Level Los Angeles Center
Mon 12:54:37 AM 35.4714 -120.5750 326° Northwest 398 458 40,000  Level Los Angeles Center
Mon 12:55:39 AM 35.5611 -120.6497 326° Northwest 395 455 40,000  Level Los Angeles Center
Mon 12:56:40 AM 35.6436 -120.7217 325° Northwest 391 450 40,000  Level Los Angeles Center
Mon 12:57:42 AM 35.7311 -120.7953 326° Northwest 384 442 40,000 -732 Level Los Angeles Center
Mon 12:58:43 AM 35.8344 -120.8847 325° Northwest 382 440 38,500 -1,951 Descending Los Angeles Center
Mon 12:59:45 AM 35.9208 -120.9575 326° Northwest 377 434 36,000 -2,739 Descending Los Angeles Center
Mon 01:01:01 AM 36.0244 -121.0461 325° Northwest 377 434 32,200 -2,759 Descending Oakland Center
Mon 01:02:02 AM 36.1131 -121.1228 325° Northwest 385 443 29,700 -2,430 Descending Oakland Center
Mon 01:03:02 AM 36.1975 -121.1944 326° Northwest 372 428 27,300 -2,380 Descending Oakland Center
Mon 01:04:03 AM 36.2781 -121.2678 324° Northwest 362 417 24,900 -2,262 Descending Oakland Center
Mon 01:05:04 AM 36.3583 -121.3369 325° Northwest 352 405 22,700 -2,066 Descending Oakland Center
Mon 01:06:05 AM 36.4375 -121.4033 326° Northwest 344 396 20,700 -2,410 Descending Oakland Center
Mon 01:07:06 AM 36.5231 -121.4522 335° Northwest 342 394 17,800 -2,951 Descending Oakland Center
Mon 01:08:07 AM 36.6439 -121.4747 352° North 361 415 14,700 -2,607 Descending Oakland Center
Mon 01:09:08 AM 36.7383 -121.4983 349° North 347 399 12,500 -1,934 Descending Oakland Center
Mon 01:10:08 AM 36.8275 -121.5217 348° North 334 384 10,800 -1,091 Descending Oakland Center
Mon 01:11:09 AM 36.9008 -121.5350 352° North 311 358 10,300 -1,082 Descending Oakland Center
Mon 01:12:10 AM 36.9675 -121.5758 334° Northwest 281 323 8,600 -1,721 Descending Oakland Center
Mon 01:13:11 AM 37.0453 -121.6333 329° Northwest 275 316 6,800 -1,623 Descending Oakland Center
Mon 01:14:12 AM 37.1092 -121.6792 330° Northwest 270 311 5,300 -836 Descending Oakland Center
Mon 01:15:13 AM 37.1708 -121.7228 331° Northwest 263 303 5,100 -738 Descending Oakland Center
Mon 01:16:14 AM 37.2214 -121.7747 321° Northwest 246 283 3,800 -1,190 Descending Oakland Center
Mon 01:17:14 AM 37.2572 -121.8172 317° Northwest 201 231 2,700 -1,041 Descending Oakland Center
Mon 01:18:15 AM 37.2897 -121.8542 318° Northwest 174 200 1,700 -836 Descending Oakland Center
Mon 01:19:16 AM 37.3189 -121.8858 319° Northwest 154 177 1,000 -689 Descending Oakland Center
Mon 01:20:17 AM 37.3464 -121.9153 320° Northwest 139 160 300 -689 Descending Oakland Center
Mon 01:22:00 AM 37.3500 -121.9167 North  Level FlightAware Approximate

Login

Don't have an account? Register now (free) for customized features, flight alerts, and more!